WB7CYS Weather Reports


Display with metric or nautical units.
time (UTC)temp
F
wind
direction
speed
MPH
gust
MPH
rain 1hr
in
rain 24hr
in
rain mn
in
humidity
%
barometer
mb
20260901003023 84 11 9.0 17.0 0.00 0.00 0.00 22 1004.9
20260901001522 84 359 6.0 13.0 0.00 0.00 0.00 22 1005.1
20260901000013 84 357 8.0 14.0 0.00 0.00 0.00 22 1005.4
20260831234512 84 15 7.0 14.0 0.00 0.00 0.00 23 1005.5
20260831233013 84 352 6.0 17.0 0.00 0.00 0.00 23 1005.7
20260831231505 84 26 9.0 16.0 0.00 0.00 0.00 23 1006.0
20260831230002 84 333 7.0 17.0 0.00 0.00 0.00 23 1006.1
20260831224559 83 44 5.0 13.0 0.00 0.00 0.00 24 1006.4
20260831223057 83 87 5.0 15.0 0.00 0.00 0.00 23 1006.6
20260831221553 83 8 8.0 14.0 0.00 0.00 0.00 24 1007.0
20260831220049 82 335 6.0 17.0 0.00 0.00 0.00 24 1007.2
20260831214546 82 348 4.0 12.0 0.00 0.00 0.00 24 1007.7
20260831213042 80 15 8.0 14.0 0.00 0.00 0.00 25 1008.0
20260831211539 80 22 11.0 18.0 0.00 0.00 0.00 26 1008.1
20260831210039 79 329 9.0 15.0 0.00 0.00 0.00 26 1008.4
20260831204537 79 41 4.0 10.0 0.00 0.00 0.00 26 1008.7
20260831203031 79 327 3.0 15.0 0.00 0.00 0.00 27 1008.9
20260831201527 78 354 6.0 11.0 0.00 0.00 0.00 27 1009.2
20260831200029 78 356 8.0 12.0 0.00 0.00 0.00 28 1009.4
20260831194521 77 358 3.0 10.0 0.00 0.00 0.00 28 1009.6
20260831193024 77 68 4.0 11.0 0.00 0.00 0.00 28 1009.8
20260831191514 76 335 4.0 13.0 0.00 0.00 0.00 29 1010.1
20260831190011 75 293 4.0 13.0 0.00 0.00 0.00 29 1010.5
20260831184508 76 340 4.0 12.0 0.00 0.00 0.00 29 1010.6
20260831183005 75 342 3.0 10.0 0.00 0.00 0.00 29 1010.8
20260831181503 74 308 2.0 8.0 0.00 0.00 0.00 29 1010.9
20260831180101 74 325 5.0 8.0 0.00 0.00 0.00 30 1011.2
20260831174556 72 314 1.0 7.0 0.00 0.00 0.00 33 1011.4
20260831173056 71 212 4.0 6.0 0.00 0.00 0.00 35 1011.7
20260831171549 69 266 1.0 4.0 0.00 0.00 0.00 36 1011.8
20260831170047 69 235 2.0 5.0 0.00 0.00 0.00 37 1011.8
20260831164543 66 116 1.0 4.0 0.00 0.00 0.00 40 1011.8
20260831163039 64 249 3.0 5.0 0.00 0.00 0.00 42 1012.0
20260831161535 63 211 2.0 4.0 0.00 0.00 0.00 44 1012.3
20260831160038 61 245 2.0 3.0 0.00 0.00 0.00 48 1012.4
20260831154530 61 224 3.0 4.0 0.00 0.00 0.00 47 1012.5
20260831153029 60 250 2.0 4.0 0.00 0.00 0.00 47 1012.6
20260831151525 60 113 4.0 6.0 0.00 0.00 0.00 47 1012.6
20260831150022 58 93 7.0 11.0 0.00 0.00 0.00 48 1012.6
20260831144522 57 86 9.0 12.0 0.00 0.00 0.00 48 1012.6
20260831143021 56 100 9.0 12.0 0.00 0.00 0.00 50 1012.4
20260831141520 55 87 9.0 12.0 0.00 0.00 0.00 51 1012.1
20260831140019 54 101 9.0 12.0 0.00 0.00 0.00 53 1012.1
20260831134515 0 0.0 0.0 0.00 0.00 0.00 1012.2
20260831133017 0 0.0 0.0 0.00 0.00 0.00 1012.1
20260831131508 0 0.0 0.0 0.00 0.00 0.00 1012.1
20260831130001 0 0.0 0.0 0.00 0.00 0.00 1012.1
20260831124557 0 0.0 0.0 0.00 0.00 0.00 1012.0
20260831123052 0 0.0 0.0 0.00 0.00 0.00 1012.1
20260831121547 0 0.0 0.0 0.00 0.00 0.00 1012.1
20260831120043 0 0.0 0.0 0.00 0.00 0.00 1012.1
20260831114539 0 0.0 0.0 0.00 0.00 0.00 1012.1
20260831113035 0 0.0 0.0 0.00 0.00 0.00 1012.1
20260831111532 0 0.0 0.0 0.00 0.00 0.00 1012.2
20260831110030 0 0.0 0.0 0.00 0.00 0.00 1012.3
20260831104525 0 0.0 0.0 0.00 0.00 0.00 1012.3
20260831103017 0 0.0 0.0 0.00 0.00 0.00 1012.3
20260831101512 0 0.0 0.0 0.00 0.00 0.00 1012.3
20260831100008 0 0.0 0.0 0.00 0.00 0.00 1012.5
20260831094508 58 76 10.0 14.0 0.00 0.00 0.00 47 1012.6
20260831093003 57 89 10.0 13.0 0.00 0.00 0.00 49 1012.7
20260831091610 58 96 12.0 16.0 0.00 0.00 0.00 48 1012.8
20260831090058 58 86 11.0 13.0 0.00 0.00 0.00 49 1013.0
20260831084555 58 84 12.0 16.0 0.00 0.00 0.00 48 1013.0
20260831083053 58 77 11.0 15.0 0.00 0.00 0.00 48 1013.1
20260831081552 58 82 11.0 14.0 0.00 0.00 0.00 49 1013.2
20260831080051 58 84 10.0 12.0 0.00 0.00 0.00 49 1013.2
20260831074550 58 79 10.0 13.0 0.00 0.00 0.00 49 1013.3
20260831073047 58 96 8.0 10.0 0.00 0.00 0.00 49 1013.3
20260831071544 59 95 8.0 11.0 0.00 0.00 0.00 49 1013.4
20260831070041 58 79 8.0 12.0 0.00 0.00 0.00 50 1013.4
20260831064541 59 88 9.0 12.0 0.00 0.00 0.00 49 1013.3
20260831063040 58 110 5.0 8.0 0.00 0.00 0.00 52 1013.4
20260831061539 59 141 2.0 10.0 0.00 0.00 0.00 50 1013.4
20260831060037 61 85 9.0 11.0 0.00 0.00 0.00 47 1013.3
20260831054539 61 82 7.0 11.0 0.00 0.00 0.00 46 1013.4
20260831053039 60 100 8.0 9.0 0.00 0.00 0.00 49 1013.4
20260831051537 58 82 4.0 6.0 0.00 0.00 0.00 52 1013.4
20260831050035 59 81 2.0 4.0 0.00 0.00 0.00 51 1013.4
20260831044534 60 93 6.0 8.0 0.00 0.00 0.00 49 1013.5
20260831043033 60 91 4.0 6.0 0.00 0.00 0.00 50 1013.6
20260831041614 62 79 5.0 5.0 0.00 0.00 0.00 46 1013.6
20260831040033 62 89 4.0 5.0 0.00 0.00 0.00 44 1013.6
20260831034532 63 87 4.0 5.0 0.00 0.00 0.00 43 1013.5
20260831033031 63 96 4.0 5.0 0.00 0.00 0.00 43 1013.5
20260831031531 65 81 2.0 6.0 0.00 0.00 0.00 41 1013.4
20260831030034 66 101 3.0 5.0 0.00 0.00 0.00 38 1013.4
20260831024538 68 346 7.0 9.0 0.00 0.00 0.00 36 1013.1
20260831023027 69 321 6.0 9.0 0.00 0.00 0.00 34 1013.0
20260831021537 71 313 6.0 7.0 0.00 0.00 0.00 33 1012.9
20260831020026 73 314 6.0 8.0 0.00 0.00 0.00 32 1012.8
20260831014524 73 321 6.0 9.0 0.00 0.00 0.00 32 1012.9
20260831013024 74 327 8.0 10.0 0.00 0.00 0.00 31 1012.9
20260831011540 74 310 5.0 7.0 0.00 0.00 0.00 31 1012.9
20260831010021 75 333 5.0 8.0 0.00 0.00 0.00 30 1012.9
20260831004520 75 293 4.0 8.0 0.00 0.00 0.00 30 1013.0